Regional Weather Roundup
Issued by NWS Charleston, SC

Current Version | Previous Version | Graphics & Text | Print | Product List | Glossary On
Versions: 1 2 3 4 5 6 7 8 9 10 11 12 13 14 15 16 17 18 19 20 21 22 23 24 25 26 27 28 29 30 31 32 33 34 35 36 37 38 39 40 41 42 43 44 45 46 47 48 49 50
000
ASUS42 KCHS 210910
RWRCHS

REGIONAL WEATHER ROUNDUP
NATIONAL WEATHER SERVICE CHARLESTON SC
500 AM EDT SUN SEP 21 2014

NOTE: "FAIR" INDICATES FEW OR NO CLOUDS BELOW 12,000 FEET WITH NO
SIGNIFICANT WEATHER AND/OR OBSTRUCTIONS TO VISIBILITY.

NOT ALL STATIONS ARE QUALITY CONTROLLED BY THE NATIONAL
WEATHER SERVICE. USE DATA WITH CAUTION...ESPECIALLY
DEWPOINT OBSERVATIONS.

SCZ027-030-031-034>040-042>050-211000-
...SOUTH CAROLINA...

CITY           SKY/WX    TMP DP  RH WIND       PRES   REMARKS
N CHARLESTON   PTCLDY    69  63  81 NW9       29.90R
WATERFRONT PRK   N/A     72 N/A N/A NW8         N/A
FORT JOHNSON   NOT AVBL
MOUNT PLEASANT FAIR      70  64  83 NW7       29.88S
JOHNS ISLAND   SUNNY     68  68 100 NW6       29.89S
PINOPOLIS        N/A     73  64  73 N16       29.82R
MONCKS CORNER    N/A     72  66  83 N5        29.89S
SUMMERVILLE    NOT AVBL
BEAUFORT MCAS  CLEAR     67  63  87 S9        29.92S
BEAUFORT ARPT  FAIR      68  64  88 NW9       29.91S
HILTON HEAD IS CLEAR     70  64  83 NW3       29.93R
GEORGETOWN     NOT AVBL
WALTERBORO     MOSUNNY   64 N/A N/A NW3       29.93R
ORANGEBURG     PTCLDY    63  59  87 NW5       29.93S
BARNWELL       FAIR      64  61  88 NW5       29.96S
AIKEN          FAIR      63  63 100 CALM      30.00S
MANNING        FAIR      66  64  94 NW3       29.91S
KINGSTREE      NOT AVBL
COLUMBIA       PTCLDY    68  59  73 NW6       29.94S
SUMTER         PTCLDY    64  59  83 NW6       29.91S
FLORENCE       MOCLDY    68  61  78 NW7       29.89S
MYRTLE BEACH   CLOUDY    70  64  83 NW13      29.83S
N MYRTLE BEACH LGT RAIN  68  66  93 NW6       29.82S

$$

GAZ063-065-086>088-099>101-113>116-118-119-134-136>141-150-211000-
...GEORGIA...

CITY           SKY/WX    TMP DP  RH WIND       PRES   REMARKS
SAVANNAH ARPT  CLEAR     66  60  81 NW3       29.94R
HUNTER AAF     CLEAR     65  62  90 NW5       29.92R
FORT STEWART   CLEAR     64  60  86 NW6       29.94R
STATESBORO     NOT AVBL
SYLVANIA       SUNNY     64  63  97 CALM      29.96S
CLAXTON        FAIR     N/A N/A N/A CALM      29.97R
THOMSON        CLEAR     60  60 100 CALM      30.03S
AUGUSTA-BUSH   CLEAR     59  58  96 CALM      29.96S FOG
AUGUSTA-DANIEL CLEAR     68  60  75 NW7       29.98S
SWAINSBORO     FAIR      63  63 100 NW3       29.98S
VIDALIA        CLEAR     63  61  94 N5        29.98R
ALMA           CLEAR     62  60  93 CALM      29.97R
WAYCROSS       NOT AVBL
JESUP          FAIR      63  63 100 CALM      29.96R
BRUNSWICK      CLEAR     64  63  94 CALM      29.95S
SAINT SIMONS   CLEAR     67  63  87 NW5       29.93S

$$

SCZ027-028-034-036>038-045-046-048>050-GAZ119-141-211000-
...LAKE AND SUPPLEMENTAL COASTAL OBSERVATIONS...

STATION/POSITION TIME  TEMP    WIND        PRES    WAVE   SWELL
                       AIR SEA DIR/SP/G            HT/PER HT/PER/DIR
                 (UTC) (F)     (DEG/KT/KT) (MB)    (FT/S) (FT/S/D)
UPR LAKE MARION  NOT AVBL
WINYAH BAY       0800   69     330/  7     1010.0S
LAKE MURRAY      0800   65     320/  3/  6 1013.9S
ACE BASIN NERRS  0800   67     300/  2     1013.0R
FORT PULASKI     0900   67     300/  8/ 10 1013.4S
SAPELO ISLAND    0800   68     340/  4     1013.0S

$$

ANZ835-935-AMZ111-154-330-350-352-354-374-450-454-472-211000-
...C-MAN AND BUOY OBSERVATIONS...

STATION/POSITION TIME  TEMP    WIND        PRES    WAVE   SWELL
                       AIR SEA DIR/SP/G            HT/PER HT/PER/DIR
                 (UTC) (F)     (DEG/KT/KT) (MB)    (FT/S) (FT/S/D)
FOLLY BEACH CMAN 0800   71     310/  4/  6 1012.1R
BUOY 41004       0900   74 81  340/ 17/ 19 1009.8R   7/ 8   3/ 9
BUOY 41008       0900   76 83  360/ 14/ 17 1012.7R   5/ 8   3/100/ 8
5E ST. MARYS GA  0900      83                N/A     5/ 8
FRYING PAN BUOY  NOT AVBL
BUOY 41025       0900   75     170/  8/ 12 1005.8F  10/ 9  10/ 80/ 9
CAPE LOOKOUT NC  0800   72     360/ 20/ 23 1005.6F
BUOY 41002       0821   81 82  220/ 21/ 29 1007.5F   9/ 7
BUOY 41010       0900   80 84  280/ 14/ 23 1012.2R   4/ 9   3/ 30/ 9
BUOY 41012       NOT AVBL
ST AUGUSTINE FL  0900   69     320/  6/  8 1014.3R
CAPERS NEARSHORE 0800   71     360/ 14/ 17   N/A
FRIPP NEARSHORE  NOT AVBL


$$


USA.gov is the U.S. government's official web portal to all federal, state and local government web resources and services.